Stündliche Wetter Aalen

Heute, 23 Juni, Mittwoch

Zeit Temperatur Niederschläge Wind Luftdruck Luftfeuchtigkeit
00:00 +16°C° 0.1 mm 1 m/S 721 mmHg 97%
01:00 +16°C° 0.1 mm 1 m/S 721 mmHg 97%
02:00 +16°C° 0.5 mm 1 m/S 721 mmHg 97%
03:00 +15°C° 0.5 mm 1 m/S 721 mmHg 98%
04:00 +15°C° 0.5 mm 1 m/S 721 mmHg 98%
05:00 +15°C° 0.4 mm 1 m/S 722 mmHg 96%
06:00 +16°C° 0.4 mm 1 m/S 722 mmHg 95%
07:00 +16°C° 0.4 mm 1 m/S 722 mmHg 94%
08:00 +18°C° 0 mm 1 m/S 722 mmHg 85%
09:00 +20°C° 0 mm 1 m/S 722 mmHg 76%
10:00 +22°C° 0 mm 1 m/S 723 mmHg 67%
11:00 +23°C° 0 mm 1 m/S 723 mmHg 64%
12:00 +23°C° 0 mm 2 m/S 722 mmHg 61%
13:00 +24°C° 0 mm 2 m/S 722 mmHg 58%
14:00 +24°C° 0 mm 2 m/S 722 mmHg 60%
15:00 +24°C° 0 mm 2 m/S 722 mmHg 61%
16:00 +24°C° 0 mm 2 m/S 722 mmHg 62%
17:00 +23°C° 0.2 mm 2 m/S 722 mmHg 70%
18:00 +21°C° 0.2 mm 2 m/S 721 mmHg 78%
19:00 +20°C° 0.2 mm 2 m/S 721 mmHg 86%
20:00 +19°C° 0.3 mm 2 m/S 721 mmHg 88%
21:00 +18°C° 0.3 mm 2 m/S 721 mmHg 91%
22:00 +17°C° 0.3 mm 2 m/S 721 mmHg 94%
23:00 +16°C° 1.1 mm 2 m/S 722 mmHg 95%

Morgen, 24 Juni, Donnerstag

Zeit Temperatur Niederschläge Wind Luftdruck Luftfeuchtigkeit
00:00 +16°C° 1.1 mm 1 m/S 722 mmHg 97%
01:00 +16°C° 1.1 mm 1 m/S 722 mmHg 98%
02:00 +16°C° 2.2 mm 1 m/S 722 mmHg 98%
03:00 +16°C° 2.2 mm 1 m/S 722 mmHg 98%
04:00 +15°C° 2.2 mm 1 m/S 722 mmHg 98%
05:00 +16°C° 0.4 mm 1 m/S 722 mmHg 96%
06:00 +16°C° 0.4 mm 1 m/S 722 mmHg 94%
07:00 +16°C° 0.4 mm 1 m/S 722 mmHg 92%
08:00 +19°C° 0 mm 1 m/S 722 mmHg 86%
09:00 +19°C° 0 mm 2 m/S 722 mmHg 80%
10:00 +20°C° 0 mm 2 m/S 722 mmHg 74%
11:00 +21°C° 0.1 mm 2 m/S 722 mmHg 72%
12:00 +21°C° 0.1 mm 3 m/S 722 mmHg 70%
13:00 +22°C° 0.1 mm 3 m/S 721 mmHg 68%
14:00 +22°C° 0.3 mm 3 m/S 721 mmHg 70%
15:00 +22°C° 0.3 mm 3 m/S 721 mmHg 71%
16:00 +21°C° 0.3 mm 3 m/S 721 mmHg 73%
17:00 +20°C° 1.1 mm 3 m/S 721 mmHg 80%
18:00 +19°C° 1.1 mm 3 m/S 720 mmHg 86%
19:00 +17°C° 1.1 mm 4 m/S 720 mmHg 93%
20:00 +17°C° 0.7 mm 3 m/S 721 mmHg 94%
21:00 +16°C° 0.7 mm 3 m/S 721 mmHg 95%
22:00 +15°C° 0.7 mm 2 m/S 722 mmHg 97%
23:00 +14°C° 0.1 mm 3 m/S 722 mmHg 96%

übermorgen, 25 Juni, Freitag

Zeit Temperatur Niederschläge Wind Luftdruck Luftfeuchtigkeit
00:00 +14°C° 0.1 mm 3 m/S 722 mmHg 96%
01:00 +13°C° 0.1 mm 3 m/S 722 mmHg 96%
02:00 +13°C° 0.1 mm 3 m/S 722 mmHg 96%
03:00 +13°C° 0.1 mm 3 m/S 722 mmHg 97%
04:00 +13°C° 0.1 mm 3 m/S 722 mmHg 97%
05:00 +13°C° 0.1 mm 3 m/S 722 mmHg 96%
06:00 +13°C° 0.1 mm 3 m/S 722 mmHg 96%
07:00 +13°C° 0.1 mm 3 m/S 722 mmHg 95%
08:00 +13°C° 0.1 mm 3 m/S 722 mmHg 95%
09:00 +14°C° 0.1 mm 3 m/S 723 mmHg 94%
10:00 +14°C° 0.1 mm 4 m/S 723 mmHg 93%
11:00 +14°C° 0.1 mm 4 m/S 723 mmHg 91%
12:00 +14°C° 0.1 mm 4 m/S 723 mmHg 89%
13:00 +15°C° 0.1 mm 4 m/S 723 mmHg 87%
14:00 +15°C° 0 mm 4 m/S 723 mmHg 83%
15:00 +15°C° 0 mm 4 m/S 723 mmHg 80%
16:00 +15°C° 0 mm 4 m/S 723 mmHg 76%
17:00 +15°C° 0 mm 4 m/S 723 mmHg 79%
18:00 +14°C° 0 mm 3 m/S 723 mmHg 83%
19:00 +14°C° 0 mm 3 m/S 723 mmHg 87%
20:00 +14°C° 0 mm 2 m/S 723 mmHg 89%
21:00 +13°C° 0 mm 2 m/S 723 mmHg 91%
22:00 +13°C° 0 mm 1 m/S 724 mmHg 93%
23:00 +12°C° 0 mm 1 m/S 723 mmHg 93%

26 Juni, Samstag

Zeit Temperatur Niederschläge Wind Luftdruck Luftfeuchtigkeit
00:00 +12°C° 0 mm 1 m/S 723 mmHg 92%
01:00 +11°C° 0 mm 1 m/S 723 mmHg 92%
02:00 +11°C° 0 mm 1 m/S 723 mmHg 92%
03:00 +10°C° 0 mm 0 m/S 723 mmHg 91%
04:00 +10°C° 0 mm 0 m/S 723 mmHg 91%
05:00 +11°C° 0 mm 0 m/S 723 mmHg 88%
06:00 +12°C° 0 mm 0 m/S 723 mmHg 85%
07:00 +13°C° 0 mm 0 m/S 723 mmHg 82%
08:00 +16°C° 0 mm 1 m/S 723 mmHg 77%
09:00 +19°C° 0 mm 1 m/S 723 mmHg 72%
10:00 +19°C° 0 mm 2 m/S 723 mmHg 67%
11:00 +20°C° 0 mm 2 m/S 723 mmHg 64%
12:00 +21°C° 0 mm 2 m/S 723 mmHg 61%
13:00 +23°C° 0 mm 2 m/S 723 mmHg 58%
14:00 +23°C° 0 mm 2 m/S 722 mmHg 58%
15:00 +24°C° 0 mm 2 m/S 722 mmHg 58%
16:00 +24°C° 0 mm 2 m/S 722 mmHg 58%
17:00 +23°C° 0 mm 2 m/S 722 mmHg 65%
18:00 +22°C° 0 mm 1 m/S 722 mmHg 72%
19:00 +21°C° 0 mm 1 m/S 721 mmHg 80%
20:00 +20°C° 0 mm 1 m/S 721 mmHg 83%
21:00 +18°C° 0 mm 1 m/S 722 mmHg 86%
22:00 +16°C° 0 mm 1 m/S 722 mmHg 89%
23:00 +15°C° 0 mm 1 m/S 721 mmHg 90%

27 Juni, Sonntag

Zeit Temperatur Niederschläge Wind Luftdruck Luftfeuchtigkeit
00:00 +15°C° 0 mm 1 m/S 721 mmHg 91%
01:00 +15°C° 0 mm 1 m/S 721 mmHg 92%
02:00 +14°C° 0 mm 1 m/S 721 mmHg 92%
03:00 +14°C° 0 mm 1 m/S 721 mmHg 93%
04:00 +14°C° 0 mm 2 m/S 720 mmHg 93%
05:00 +15°C° 0 mm 2 m/S 720 mmHg 90%
06:00 +16°C° 0 mm 2 m/S 721 mmHg 87%
07:00 +17°C° 0 mm 2 m/S 721 mmHg 83%
08:00 +19°C° 0 mm 2 m/S 720 mmHg 78%
09:00 +21°C° 0 mm 3 m/S 720 mmHg 72%
10:00 +22°C° 0 mm 3 m/S 720 mmHg 66%
11:00 +24°C° 0 mm 3 m/S 720 mmHg 63%
12:00 +26°C° 0 mm 3 m/S 720 mmHg 60%
13:00 +27°C° 0 mm 3 m/S 720 mmHg 56%
14:00 +27°C° 0 mm 3 m/S 720 mmHg 56%
15:00 +27°C° 0 mm 3 m/S 719 mmHg 56%
16:00 +27°C° 0 mm 3 m/S 719 mmHg 56%
17:00 +26°C° 0 mm 3 m/S 719 mmHg 63%
18:00 +25°C° 0 mm 2 m/S 718 mmHg 70%
19:00 +24°C° 0 mm 2 m/S 718 mmHg 77%
20:00 +21°C° 0 mm 2 m/S 718 mmHg 80%
21:00 +20°C° 0 mm 2 m/S 718 mmHg 82%
22:00 +20°C° 0 mm 1 m/S 717 mmHg 84%
23:00 +18°C° 0.9 mm 3 m/S 718 mmHg 88%

28 Juni, Montag

Zeit Temperatur Niederschläge Wind Luftdruck Luftfeuchtigkeit
00:00 +18°C° 0.9 mm 4 m/S 718 mmHg 93%
01:00 +17°C° 0.9 mm 5 m/S 719 mmHg 97%
02:00 +16°C° 1.1 mm 5 m/S 719 mmHg 97%
03:00 +16°C° 1.1 mm 5 m/S 719 mmHg 97%
04:00 +15°C° 1.1 mm 5 m/S 720 mmHg 97%
05:00 +15°C° 0.1 mm 4 m/S 720 mmHg 96%
06:00 +16°C° 0.1 mm 3 m/S 720 mmHg 94%
07:00 +16°C° 0.1 mm 3 m/S 720 mmHg 93%
08:00 +16°C° 0.1 mm 2 m/S 720 mmHg 91%
09:00 +17°C° 0.1 mm 2 m/S 720 mmHg 89%
10:00 +17°C° 0.1 mm 2 m/S 720 mmHg 87%
11:00 +18°C° 0.1 mm 2 m/S 720 mmHg 85%
12:00 +19°C° 0.1 mm 2 m/S 720 mmHg 82%
13:00 +19°C° 0.1 mm 3 m/S 719 mmHg 80%
14:00 +19°C° 0.6 mm 3 m/S 719 mmHg 82%
15:00 +19°C° 0.6 mm 4 m/S 719 mmHg 85%
16:00 +17°C° 0.6 mm 5 m/S 719 mmHg 88%
17:00 +15°C° 4.8 mm 5 m/S 720 mmHg 91%
18:00 +13°C° 4.8 mm 6 m/S 720 mmHg 93%
19:00 +9°C° 4.8 mm 6 m/S 721 mmHg 96%
20:00 +9°C° 0.4 mm 5 m/S 721 mmHg 96%
21:00 +10°C° 0.4 mm 4 m/S 721 mmHg 96%
22:00 +10°C° 0.4 mm 2 m/S 722 mmHg 96%
23:00 +10°C° 0 mm 2 m/S 722 mmHg 95%
Mehr zeigen

Wir brauchen deine Erlaubnis

Meteoprog und unser Service Anbieter werden persönliche Daten aufbewahren, so wie Cookies, Geräte Bezeichnung oder ähnliche Technologien von deinem Gerät und Prozess, so wie Persönliche Daten Inhalte und Werbungen, genauso wie social Media und den Verkehr zu analysieren.

  • Aufbewahrung und/oder Zugang zu deiner Geräte Informationen.

    Cookies, Geräte Bezeichnung oder andere Informationen, können aufbewahrt oder Zugang zu deinem Gerät erhalten, für den Grund, der oben angegeben wird.

  • Personalisierte Werbung und Inhalte, Messungen, Einblick in das Publikum und Produkt Entwicklung.

    Werbungen und Inhalte können personalisiert werden, basierend auf ein Profil. Mehr Daten können besser personalisierte Werbungen und Inhalte hinzufügen. Werbung und Inhalte können gezeigt und gemessen werden. Einblicke über das Publikum, welche die Werbung gesehen haben und den Inhalt, können abgeleitet werden. So wie Daten können genutzt werden, um es zu verbessern oder die Benutzer Erfahrung zu verbessern das System und die Software.

Wenn du “Ich stimme zu” klickst, erlaubst du uns, die Cookies zu benutzen die Geräte Bezeichnung, den Web oder ähnliche Technologien zu benutzen. Deine Settings, können in deinem Gerät bei deinem Browser geändert werden.

Für den bestimmten Zweck, berechtigten Interessen beruhen darauf, mehr als auf den Inhalt. Du kannst mehr darüber in unseren Privaten und Cookie Politik lesen.